Whitefield, NH

8:50 PM EST on February 06, 2016 (GMT -0500)
Mount Washington Regional

Weather History for KHIE - April, 2014

Change the Weather History Date:

Wednesday, April 2, 2014

  Actual Average Record
Temperature  
Mean Temperature 39 °F -  
Max Temperature 52 °F 41 °F 60 °F (2009)
Min Temperature 27 °F 21 °F 8 °F (2015)
Degree Days  
Heating Degree Days 26    
Moisture  
Dew Point 22 °F    
Average Humidity 53    
Maximum Humidity 85    
Minimum Humidity 25    
Precipitation  
Precipitation 0.00 in - - ()
Sea Level Pressure  
Sea Level Pressure 30.03 in    
Wind  
Wind Speed 10 mph (ESE)    
Max Wind Speed 14 mph    
Max Gust Speed 25 mph    
Visibility 10 miles    
Events      
Averages and records for this station are not official NWS values.
T = Trace of Precipitation, MM = Missing Value Source: NWS Daily Summary

Daily Weather History Graph

Daily Weather History Graph

Search for Another Location

Airport or City:

Trip Planner

Search our weather history database for the weather conditions in past years. The results will help you decide how hot, cold, wet, or windy it might be!

Date:

Astronomy

Apr. 02, 2014 Rise Set
Actual Time 6:25 AM EDT 7:14 PM EDT
Civil Twilight 5:56 AM EDT 7:44 PM EDT
Nautical Twilight 5:21 AM EDT 8:19 PM EDT
Astronomical Twilight 4:44 AM EDT 8:55 PM EDT
Moon 8:01 AM EDT (4/2) 10:42 PM EDT (4/2)
Length of Visible Light 13h 48m
Length of Day
12h 49m
Waxing Crescent, 10% of the Moon is Illuminated
Apr 2
Waxing Crescent
Apr 7
First Quarter
Apr 15
Full
Apr 22
Last Quarter
Apr 29
New

Hourly Weather History & Observations

Time (EDT) Temp. Windchill Dew Point Humidity Pressure Visibility Wind Dir Wind Speed Gust Speed Precip Events Conditions
12:52 AM 37.0 °F 29.8 °F 18.0 °F 46% 30.06 in 10.0 mi ESE 10.4 mph - N/A   Clear
1:52 AM 32.0 °F 23.6 °F 21.0 °F 64% 30.04 in 10.0 mi ESE 10.4 mph - N/A   Clear
2:52 AM 36.0 °F 29.6 °F 14.0 °F 41% 30.04 in 10.0 mi ESE 8.1 mph - N/A   Clear
3:52 AM 33.1 °F 23.4 °F 18.0 °F 54% 30.04 in 10.0 mi East 13.8 mph - N/A   Clear
4:52 AM 35.1 °F 29.3 °F 12.9 °F 40% 30.04 in 10.0 mi East 6.9 mph - N/A   Clear
5:52 AM 30.0 °F 24.1 °F 16.0 °F 56% 30.05 in 10.0 mi East 5.8 mph - N/A   Clear
6:52 AM 27.0 °F 16.7 °F 19.0 °F 72% 30.07 in 10.0 mi ESE 11.5 mph - N/A   Clear
8:52 AM 41.0 °F 34.7 °F 14.0 °F 33% 30.04 in 10.0 mi ESE 10.4 mph - N/A   Clear
9:52 AM 46.0 °F 41.0 °F 12.0 °F 25% 30.05 in 10.0 mi East 10.4 mph - N/A   Mostly Cloudy
10:52 AM 46.9 °F - 24.1 °F 41% 30.03 in 10.0 mi SE 9.2 mph - N/A   Mostly Cloudy
11:52 AM 46.9 °F - 26.1 °F 44% 30.03 in 10.0 mi SSE 8.1 mph - N/A   Mostly Cloudy
12:52 PM 48.0 °F - 26.1 °F 42% 30.02 in 10.0 mi SSE 10.4 mph 25.3 mph N/A   Mostly Cloudy
1:52 PM 46.9 °F - 27.0 °F 46% 30.02 in 10.0 mi SSE 10.4 mph - N/A   Clear
2:52 PM 48.9 °F - 27.0 °F 43% 30.00 in 10.0 mi ESE 10.4 mph - N/A   Clear
3:52 PM 51.1 °F - 27.0 °F 39% 29.98 in 10.0 mi SSE 9.2 mph - N/A   Clear
4:52 PM 51.1 °F - 26.1 °F 38% 29.98 in 10.0 mi SE 8.1 mph - N/A   Clear
6:52 PM 50.0 °F - 27.0 °F 41% 29.99 in 10.0 mi ESE 10.4 mph - N/A   Clear
7:52 PM 37.9 °F 30.9 °F 28.0 °F 68% 30.02 in 10.0 mi ESE 10.4 mph - N/A   Clear
8:52 PM 34.0 °F 26.0 °F 26.1 °F 73% 30.03 in 10.0 mi East 10.4 mph - N/A   Clear
9:52 PM 30.9 °F 21.7 °F 25.0 °F 79% 30.03 in 10.0 mi East 11.5 mph - N/A   Clear
10:52 PM 28.0 °F 19.3 °F 24.1 °F 85% 30.04 in 10.0 mi East 9.2 mph - N/A   Clear
11:52 PM 27.0 °F 16.7 °F 23.0 °F 85% 30.05 in 10.0 mi ESE 11.5 mph - N/A   Clear